Time,TemperatureF,DewpointF,PressureIn,WindDirection,WindDirectionDegrees,WindSpeedMPH,WindSpeedGustMPH,Humidity,HourlyPrecipIn,Conditions,Clouds,dailyrainin,SolarRadiationWatts/m^2,SoftwareType,DateUTC
2013-05-03 00:00:00,51.4,45.1,30.00,NNE,22,5.0,6.0,79,0.01,RA,OVC,0.00,0.0,WeatherDisplay:10.37,2013-05-02 22:00:00,
2013-05-03 00:10:00,51.3,45.0,30.00,North,10,5.0,5.0,79,0.00,OVC,OVC,0.00,0.0,WeatherDisplay:10.37,2013-05-02 22:10:00,
2013-05-03 00:20:00,51.3,45.0,30.00,North,0,5.0,5.0,79,0.01,RA,OVC,0.01,0.0,WeatherDisplay:10.37,2013-05-02 22:20:00,
2013-05-03 00:30:00,51.3,45.0,30.00,North,0,5.0,5.0,79,0.00,OVC,OVC,0.01,0.0,WeatherDisplay:10.37,2013-05-02 22:30:00,
2013-05-03 00:40:00,51.3,45.0,30.00,North,355,5.0,5.0,79,0.01,RA,OVC,0.03,0.0,WeatherDisplay:10.37,2013-05-02 22:40:00,
2013-05-03 00:50:00,51.1,44.8,30.00,North,350,5.0,5.0,79,0.01,RA,OVC,0.05,0.0,WeatherDisplay:10.37,2013-05-02 22:50:00,
2013-05-03 01:00:00,51.3,45.3,30.00,North,358,0.0,5.0,80,0.00,OVC,OVC,0.05,0.0,WeatherDisplay:10.37,2013-05-02 23:00:00,
2013-05-03 01:10:00,51.3,45.3,30.00,NE,48,5.0,5.0,80,0.00,OVC,OVC,0.05,0.0,WeatherDisplay:10.37,2013-05-02 23:10:00,
2013-05-03 01:20:00,51.4,45.5,30.00,East,100,2.0,5.0,80,0.00,OVC,OVC,0.06,0.0,WeatherDisplay:10.37,2013-05-02 23:20:00,
2013-05-03 01:30:00,51.4,45.5,30.00,ESE,107,0.0,2.0,80,0.00,OVC,OVC,0.06,0.0,WeatherDisplay:10.37,2013-05-02 23:30:00,
2013-05-03 01:40:00,51.4,45.5,30.00,ESE,113,0.0,4.0,80,0.00,OVC,OVC,0.06,0.0,WeatherDisplay:10.37,2013-05-02 23:40:00,
2013-05-03 01:50:00,51.3,45.3,30.00,NNW,333,1.0,1.0,80,0.00,OVC,OVC,0.06,0.0,WeatherDisplay:10.37,2013-05-02 23:50:00,
2013-05-03 02:00:00,51.1,45.1,29.97,NNW,348,2.0,2.0,80,0.00,OVC,OVC,0.06,0.0,WeatherDisplay:10.37,2013-05-03 00:00:00,
2013-05-03 02:10:00,51.1,45.1,29.97,NNW,340,0.0,0.0,80,0.00,-RA,OVC,0.06,0.0,WeatherDisplay:10.37,2013-05-03 00:10:00,
2013-05-03 02:20:00,51.1,45.1,29.97,NNE,14,0.0,1.0,80,0.00,-RA,OVC,0.07,0.0,WeatherDisplay:10.37,2013-05-03 00:20:00,
2013-05-03 02:30:00,51.3,45.3,29.97,North,6,0.0,0.0,80,0.00,-RA,OVC,0.07,0.0,WeatherDisplay:10.37,2013-05-03 00:30:00,
2013-05-03 02:40:00,51.1,45.1,29.97,NNE,15,2.0,3.0,80,0.00,-RA,OVC,0.07,0.0,WeatherDisplay:10.37,2013-05-03 00:40:00,
2013-05-03 02:50:00,51.1,45.1,29.97,NNE,17,3.0,3.0,80,0.00,-RA,OVC,0.07,0.0,WeatherDisplay:10.37,2013-05-03 00:50:00,
2013-05-03 03:00:00,51.1,45.1,29.97,NNE,12,3.0,3.0,80,0.00,-RA,OVC,0.07,0.0,WeatherDisplay:10.37,2013-05-03 01:00:00,
2013-05-03 03:10:00,51.1,45.1,29.97,North,6,2.0,5.0,80,0.00,-RA,OVC,0.07,0.0,WeatherDisplay:10.37,2013-05-03 01:10:00,
2013-05-03 03:20:00,50.9,44.9,29.97,NW,321,5.0,5.0,80,0.01,-RA,OVC,0.08,0.0,WeatherDisplay:10.37,2013-05-03 01:20:00,
2013-05-03 03:30:00,50.9,44.9,29.97,NNW,341,6.0,6.0,80,0.00,-RA,OVC,0.08,0.0,WeatherDisplay:10.37,2013-05-03 01:30:00,
2013-05-03 03:40:00,50.9,44.9,29.97,NNW,335,5.0,6.0,80,0.00,-RA,OVC,0.09,0.0,WeatherDisplay:10.37,2013-05-03 01:40:00,
2013-05-03 03:50:00,50.7,44.8,29.97,North,5,5.0,7.0,80,0.01,-RA,OVC,0.12,0.0,WeatherDisplay:10.37,2013-05-03 01:50:00,
2013-05-03 04:00:00,50.7,44.8,29.97,North,2,6.0,6.0,80,0.01,-RA,OVC,0.13,0.0,WeatherDisplay:10.37,2013-05-03 02:00:00,
2013-05-03 04:10:00,50.7,44.8,29.97,North,4,2.0,5.0,80,0.00,-RA,OVC,0.13,0.0,WeatherDisplay:10.37,2013-05-03 02:10:00,
2013-05-03 04:20:00,50.7,44.8,29.97,NNW,342,6.0,6.0,80,0.00,-RA,OVC,0.14,0.0,WeatherDisplay:10.37,2013-05-03 02:20:00,
2013-05-03 04:30:00,50.5,44.6,29.94,North,357,5.0,6.0,80,0.01,-RA,OVC,0.15,0.0,WeatherDisplay:10.37,2013-05-03 02:30:00,
2013-05-03 04:40:00,50.5,44.6,29.94,North,357,7.0,8.0,80,0.01,-RA,OVC,0.16,0.0,WeatherDisplay:10.37,2013-05-03 02:40:00,
2013-05-03 04:50:00,50.4,44.4,29.94,NNW,331,6.0,8.0,80,0.00,-RA,OVC,0.16,0.0,WeatherDisplay:10.37,2013-05-03 02:50:00,
2013-05-03 05:00:00,50.4,44.4,29.94,NNW,332,5.0,6.0,80,0.01,-RA,OVC,0.17,0.0,WeatherDisplay:10.37,2013-05-03 03:00:00,
2013-05-03 05:10:00,50.4,44.4,29.94,North,3,6.0,6.0,80,0.00,-RA,OVC,0.17,0.0,WeatherDisplay:10.37,2013-05-03 03:10:00,
2013-05-03 05:20:00,50.2,44.2,29.94,NNW,338,8.0,8.0,80,0.01,-RA,OVC,0.19,0.0,WeatherDisplay:10.37,2013-05-03 03:20:00,
2013-05-03 05:30:00,50.2,44.2,29.94,NW,324,8.0,8.0,80,0.00,-RA,OVC,0.19,0.0,WeatherDisplay:10.37,2013-05-03 03:30:00,
2013-05-03 05:40:00,50.0,44.1,29.94,North,355,6.0,8.0,80,0.00,-RA,OVC,0.19,0.0,WeatherDisplay:10.37,2013-05-03 03:40:00,
2013-05-03 05:50:00,50.0,44.1,29.94,North,8,6.0,6.0,80,0.00,-RA,OVC,0.20,0.0,WeatherDisplay:10.37,2013-05-03 03:50:00,
2013-05-03 06:00:00,50.0,44.1,29.94,North,2,5.0,6.0,80,0.00,-RA,OVC,0.20,0.0,WeatherDisplay:10.37,2013-05-03 04:00:00,
2013-05-03 06:10:00,49.8,43.9,29.94,NNW,341,7.0,7.0,80,0.01,-RA,OVC,0.21,0.0,WeatherDisplay:10.37,2013-05-03 04:10:00,
2013-05-03 06:20:00,49.6,43.7,29.94,North,357,3.0,7.0,80,0.00,-RA,OVC,0.22,0.0,WeatherDisplay:10.37,2013-05-03 04:20:00,
2013-05-03 06:30:00,49.6,43.7,29.94,North,7,6.0,6.0,80,0.01,-RA,OVC,0.23,0.0,WeatherDisplay:10.37,2013-05-03 04:30:00,
2013-05-03 06:40:00,49.8,43.9,29.94,North,1,7.0,7.0,80,0.00,-RA,OVC,0.24,0.0,WeatherDisplay:10.37,2013-05-03 04:40:00,
2013-05-03 06:50:00,49.6,43.7,29.94,North,358,6.0,7.0,80,0.00,-RA,OVC,0.24,0.0,WeatherDisplay:10.37,2013-05-03 04:50:00,
2013-05-03 07:00:00,49.6,43.7,29.94,NNW,338,6.0,6.0,80,0.01,-RA,OVC,0.26,0.0,WeatherDisplay:10.37,2013-05-03 05:00:00,
2013-05-03 07:10:00,49.5,43.5,29.94,NNW,341,6.0,6.0,80,0.00,-RA,OVC,0.26,0.0,WeatherDisplay:10.37,2013-05-03 05:10:00,
2013-05-03 07:20:00,49.5,43.5,29.94,North,4,7.0,7.0,80,0.00,-RA,OVC,0.26,0.0,WeatherDisplay:10.37,2013-05-03 05:20:00,
2013-05-03 07:30:00,49.5,43.5,29.94,North,11,3.0,7.0,80,0.00,-RA,OVC,0.26,0.0,WeatherDisplay:10.37,2013-05-03 05:30:00,
2013-05-03 07:40:00,49.5,43.5,29.94,North,5,3.0,5.0,80,0.00,-RA,OVC,0.26,0.0,WeatherDisplay:10.37,2013-05-03 05:40:00,
2013-05-03 07:50:00,49.5,43.5,29.94,North,351,3.0,5.0,80,0.00,-RA,OVC,0.26,0.0,WeatherDisplay:10.37,2013-05-03 05:50:00,
2013-05-03 08:00:00,49.5,43.5,29.94,NNW,343,5.0,5.0,80,0.00,-RA,OVC,0.26,0.0,WeatherDisplay:10.37,2013-05-03 06:00:00,
2013-05-03 08:10:00,49.5,43.5,29.94,North,352,5.0,5.0,80,0.00,-RA,OVC,0.26,0.0,WeatherDisplay:10.37,2013-05-03 06:10:00,
2013-05-03 08:20:00,49.5,43.5,29.94,NNW,333,6.0,6.0,80,0.00,-RA,OVC,0.27,0.0,WeatherDisplay:10.37,2013-05-03 06:20:00,
2013-05-03 08:30:00,49.6,43.7,29.94,North,355,5.0,6.0,80,0.00,-RA,OVC,0.27,0.0,WeatherDisplay:10.37,2013-05-03 06:30:00,
2013-05-03 08:40:00,49.6,43.7,29.94,North,359,7.0,8.0,80,0.01,-RA,OVC,0.28,0.0,WeatherDisplay:10.37,2013-05-03 06:40:00,
2013-05-03 08:50:00,49.5,43.5,29.94,North,0,6.0,9.0,80,0.00,-RA,OVC,0.28,0.0,WeatherDisplay:10.37,2013-05-03 06:50:00,
2013-05-03 09:00:00,49.5,43.5,29.94,North,1,5.0,6.0,80,0.00,-RA,OVC,0.28,0.0,WeatherDisplay:10.37,2013-05-03 07:00:00,
2013-05-03 09:10:00,49.3,43.4,29.94,NNW,336,6.0,6.0,80,0.00,-RA,OVC,0.28,0.0,WeatherDisplay:10.37,2013-05-03 07:10:00,
2013-05-03 09:20:00,49.6,43.7,29.97,NNW,338,5.0,6.0,80,0.00,-RA,OVC,0.28,0.0,WeatherDisplay:10.37,2013-05-03 07:20:00,
2013-05-03 09:30:00,49.3,43.4,29.94,North,3,5.0,5.0,80,0.01,-RA,OVC,0.29,0.0,WeatherDisplay:10.37,2013-05-03 07:30:00,
2013-05-03 09:40:00,49.5,43.5,29.94,NNE,16,3.0,6.0,80,0.00,-RA,OVC,0.29,0.0,WeatherDisplay:10.37,2013-05-03 07:40:00,
2013-05-03 09:50:00,49.5,43.5,29.94,North,353,5.0,5.0,80,0.00,-RA,OVC,0.29,0.0,WeatherDisplay:10.37,2013-05-03 07:50:00,
2013-05-03 10:00:00,49.5,43.5,29.97,NNW,341,5.0,5.0,80,0.00,-RA,OVC,0.29,0.0,WeatherDisplay:10.37,2013-05-03 08:00:00,
2013-05-03 10:10:00,49.6,43.7,29.97,North,358,5.0,6.0,80,0.00,-RA,OVC,0.29,0.0,WeatherDisplay:10.37,2013-05-03 08:10:00,
2013-05-03 10:20:00,49.5,43.5,29.94,North,6,7.0,7.0,80,0.00,-RA,OVC,0.29,0.0,WeatherDisplay:10.37,2013-05-03 08:20:00,
2013-05-03 10:30:00,49.5,43.5,29.97,North,357,5.0,7.0,80,0.00,-RA,OVC,0.29,0.0,WeatherDisplay:10.37,2013-05-03 08:30:00,
2013-05-03 10:40:00,49.8,43.9,29.97,NNW,344,3.0,6.0,80,0.00,-RA,OVC,0.29,0.0,WeatherDisplay:10.37,2013-05-03 08:40:00,
2013-05-03 10:50:00,49.8,43.9,29.97,NNW,344,7.0,7.0,80,0.00,-RA,OVC,0.29,0.0,WeatherDisplay:10.37,2013-05-03 08:50:00,
2013-05-03 11:00:00,49.5,43.5,29.97,North,353,8.0,8.0,80,0.00,-RA,OVC,0.29,0.0,WeatherDisplay:10.37,2013-05-03 09:00:00,
2013-05-03 11:10:00,49.6,43.7,29.97,NNW,334,6.0,6.0,80,0.00,-RA,OVC,0.29,0.0,WeatherDisplay:10.37,2013-05-03 09:10:00,
2013-05-03 11:20:00,50.0,44.1,29.97,NW,324,5.0,6.0,80,0.00,-RA,OVC,0.29,0.0,WeatherDisplay:10.37,2013-05-03 09:20:00,
2013-05-03 11:30:00,49.1,43.2,29.97,North,353,6.0,6.0,80,0.00,-RA,OVC,0.29,0.0,WeatherDisplay:10.37,2013-05-03 09:30:00,
2013-05-03 11:40:00,49.6,43.7,29.97,NNW,347,3.0,6.0,80,0.00,-RA,OVC,0.29,0.0,WeatherDisplay:10.37,2013-05-03 09:40:00,
2013-05-03 11:50:00,49.3,43.4,29.97,NNW,343,6.0,6.0,80,0.00,-RA,OVC,0.29,0.0,WeatherDisplay:10.37,2013-05-03 09:50:00,
2013-05-03 12:00:00,49.1,43.2,29.97,North,0,6.0,6.0,80,0.01,-RA,OVC,0.30,0.0,WeatherDisplay:10.37,2013-05-03 10:00:00,
2013-05-03 12:10:00,49.1,43.2,29.97,North,351,6.0,8.0,80,0.00,-RA,OVC,0.30,0.0,WeatherDisplay:10.37,2013-05-03 10:10:00,
2013-05-03 12:20:00,48.7,42.8,29.97,NNE,16,7.0,7.0,80,0.00,-RA,OVC,0.31,0.0,WeatherDisplay:10.37,2013-05-03 10:20:00,
2013-05-03 12:30:00,48.7,42.8,29.97,NNE,15,5.0,7.0,80,0.00,-RA,OVC,0.31,0.0,WeatherDisplay:10.37,2013-05-03 10:30:00,
2013-05-03 12:40:00,48.6,42.7,29.97,North,353,5.0,6.0,80,0.00,-RA,OVC,0.33,0.0,WeatherDisplay:10.37,2013-05-03 10:40:00,
2013-05-03 12:50:00,48.4,42.5,29.97,NW,308,6.0,8.0,80,0.01,-RA,OVC,0.34,0.0,WeatherDisplay:10.37,2013-05-03 10:50:00,
2013-05-03 13:00:00,48.4,42.5,29.97,NW,318,1.0,6.0,80,0.00,-RA,OVC,0.34,0.0,WeatherDisplay:10.37,2013-05-03 11:00:00,
2013-05-03 13:10:00,47.8,42.0,29.97,North,2,7.0,7.0,80,0.01,-RA,OVC,0.35,0.0,WeatherDisplay:10.37,2013-05-03 11:10:00,
2013-05-03 13:20:00,47.8,42.0,29.97,North,8,6.0,7.0,80,0.00,-RA,OVC,0.36,0.0,WeatherDisplay:10.37,2013-05-03 11:20:00,
2013-05-03 13:30:00,47.8,42.0,29.97,North,11,2.0,6.0,80,0.01,-RA,OVC,0.37,0.0,WeatherDisplay:10.37,2013-05-03 11:30:00,
2013-05-03 13:40:00,48.0,42.1,29.97,NNW,334,8.0,8.0,80,0.01,-RA,OVC,0.38,0.0,WeatherDisplay:10.37,2013-05-03 11:40:00,
2013-05-03 13:50:00,47.8,42.0,29.97,North,349,6.0,8.0,80,0.01,-RA,OVC,0.41,0.0,WeatherDisplay:10.37,2013-05-03 11:50:00,
2013-05-03 14:00:00,48.0,42.1,29.97,North,350,6.0,6.0,80,0.00,-RA,OVC,0.41,0.0,WeatherDisplay:10.37,2013-05-03 12:00:00,
2013-05-03 14:10:00,48.4,42.5,29.97,NNW,341,7.0,7.0,80,0.01,-RA,OVC,0.43,0.0,WeatherDisplay:10.37,2013-05-03 12:10:00,
2013-05-03 14:20:00,48.4,42.5,29.97,North,351,7.0,7.0,80,0.01,-RA,OVC,0.44,0.0,WeatherDisplay:10.37,2013-05-03 12:20:00,
2013-05-03 14:30:00,48.6,42.7,29.97,North,350,1.0,7.0,80,0.01,-RA,OVC,0.45,0.0,WeatherDisplay:10.37,2013-05-03 12:30:00,
2013-05-03 14:40:00,48.6,42.7,29.97,North,358,6.0,6.0,80,0.01,-RA,OVC,0.46,0.0,WeatherDisplay:10.37,2013-05-03 12:40:00,
2013-05-03 14:50:00,48.4,42.5,29.97,NNW,347,1.0,6.0,80,0.01,-RA,OVC,0.48,0.0,WeatherDisplay:10.37,2013-05-03 12:50:00,
2013-05-03 15:00:00,48.4,42.5,29.97,North,1,5.0,5.0,80,0.00,-RA,OVC,0.48,0.0,WeatherDisplay:10.37,2013-05-03 13:00:00,
2013-05-03 15:10:00,48.7,42.8,29.97,North,0,5.0,6.0,80,0.00,-RA,OVC,0.48,0.0,WeatherDisplay:10.37,2013-05-03 13:10:00,
2013-05-03 15:20:00,49.1,42.9,29.97,NNE,30,6.0,6.0,79,0.00,-RA,OVC,0.48,0.0,WeatherDisplay:10.37,2013-05-03 13:20:00,
2013-05-03 15:30:00,49.3,43.0,29.97,NNE,30,7.0,7.0,79,0.00,-RA,OVC,0.48,0.0,WeatherDisplay:10.37,2013-05-03 13:30:00,
2013-05-03 15:40:00,50.7,44.8,29.97,NNE,28,6.0,7.0,80,0.00,-RA,OVC,0.48,0.0,WeatherDisplay:10.37,2013-05-03 13:40:00,
2013-05-03 15:50:00,50.4,44.4,29.97,NNE,18,6.0,6.0,80,0.00,-RA,OVC,0.48,0.0,WeatherDisplay:10.37,2013-05-03 13:50:00,
2013-05-03 16:00:00,50.7,44.8,29.94,North,3,5.0,6.0,80,0.00,-RA,OVC,0.48,0.0,WeatherDisplay:10.37,2013-05-03 14:00:00,
2013-05-03 16:10:00,49.8,43.6,29.94,North,6,7.0,9.0,79,0.00,-RA,OVC,0.48,0.0,WeatherDisplay:10.37,2013-05-03 14:10:00,
2013-05-03 16:20:00,50.4,44.1,29.97,NNE,18,8.0,8.0,79,0.00,-RA,OVC,0.48,0.0,WeatherDisplay:10.37,2013-05-03 14:20:00,
2013-05-03 16:30:00,50.7,44.4,29.97,North,7,3.0,8.0,79,0.00,-RA,OVC,0.48,0.0,WeatherDisplay:10.37,2013-05-03 14:30:00,
2013-05-03 16:40:00,50.5,44.3,29.97,North,7,6.0,7.0,79,0.00,-RA,OVC,0.48,0.0,WeatherDisplay:10.37,2013-05-03 14:40:00,
2013-05-03 16:50:00,50.2,43.6,29.97,NNE,17,7.0,8.0,78,0.00,-RA,OVC,0.48,0.0,WeatherDisplay:10.37,2013-05-03 14:50:00,
2013-05-03 17:00:00,50.2,43.6,29.97,North,10,7.0,7.0,78,0.00,-RA,OVC,0.48,0.0,WeatherDisplay:10.37,2013-05-03 15:00:00,
2013-05-03 17:10:00,50.4,43.8,29.97,North,5,6.0,6.0,78,0.00,BKN,OVC,0.48,0.0,WeatherDisplay:10.37,2013-05-03 15:10:00,
2013-05-03 17:20:00,50.4,43.8,29.97,NE,39,5.0,6.0,78,0.00,BKN,OVC,0.48,0.0,WeatherDisplay:10.37,2013-05-03 15:20:00,
2013-05-03 17:30:00,50.0,43.4,29.97,NE,45,7.0,7.0,78,0.00,BKN,OVC,0.48,0.0,WeatherDisplay:10.37,2013-05-03 15:30:00,
2013-05-03 17:40:00,50.2,43.6,29.97,North,1,6.0,7.0,78,0.00,BKN,OVC,0.48,0.0,WeatherDisplay:10.37,2013-05-03 15:40:00,
2013-05-03 17:50:00,50.2,43.6,29.97,NNE,27,3.0,6.0,78,0.00,BKN,OVC,0.48,0.0,WeatherDisplay:10.37,2013-05-03 15:50:00,
2013-05-03 18:00:00,50.0,43.1,29.97,North,352,6.0,6.0,77,0.00,BKN,OVC,0.48,0.0,WeatherDisplay:10.37,2013-05-03 16:00:00,
2013-05-03 18:10:00,50.0,43.1,29.97,North,356,6.0,6.0,77,0.00,BKN,OVC,0.48,0.0,WeatherDisplay:10.37,2013-05-03 16:10:00,
2013-05-03 18:20:00,50.4,43.8,29.97,North,10,6.0,6.0,78,0.00,BKN,OVC,0.48,0.0,WeatherDisplay:10.37,2013-05-03 16:20:00,
2013-05-03 18:30:00,50.2,43.2,29.97,NNW,345,5.0,6.0,77,0.00,BKN,OVC,0.48,0.0,WeatherDisplay:10.37,2013-05-03 16:30:00,
2013-05-03 18:40:00,50.0,43.1,29.97,North,353,5.0,5.0,77,0.00,BKN,OVC,0.48,0.0,WeatherDisplay:10.37,2013-05-03 16:40:00,
2013-05-03 18:50:00,50.0,43.1,29.97,North,5,2.0,5.0,77,0.00,BKN,OVC,0.48,0.0,WeatherDisplay:10.37,2013-05-03 16:50:00,
2013-05-03 19:00:00,50.0,43.1,29.97,North,1,5.0,5.0,77,0.00,BKN,OVC,0.48,0.0,WeatherDisplay:10.37,2013-05-03 17:00:00,
2013-05-03 19:10:00,50.0,43.1,29.97,NNE,17,5.0,5.0,77,0.00,BKN,OVC,0.48,0.0,WeatherDisplay:10.37,2013-05-03 17:10:00,
2013-05-03 19:20:00,50.0,43.1,29.97,North,0,3.0,5.0,77,0.00,BKN,OVC,0.48,0.0,WeatherDisplay:10.37,2013-05-03 17:20:00,
2013-05-03 19:30:00,50.0,43.1,29.97,North,350,5.0,5.0,77,0.00,BKN,OVC,0.48,0.0,WeatherDisplay:10.37,2013-05-03 17:30:00,
2013-05-03 19:40:00,49.8,42.6,29.97,North,357,5.0,6.0,76,0.00,BKN,OVC,0.48,0.0,WeatherDisplay:10.37,2013-05-03 17:40:00,
2013-05-03 19:50:00,49.3,42.0,30.00,North,9,3.0,5.0,76,0.00,BKN,OVC,0.48,0.0,WeatherDisplay:10.37,2013-05-03 17:50:00,
2013-05-03 20:00:00,49.3,42.0,30.00,North,5,2.0,3.0,76,0.00,BKN,OVC,0.48,0.0,WeatherDisplay:10.37,2013-05-03 18:00:00,
2013-05-03 20:10:00,49.1,41.9,30.00,North,8,5.0,5.0,76,0.00,BKN,OVC,0.48,0.0,WeatherDisplay:10.37,2013-05-03 18:10:00,
2013-05-03 20:20:00,48.9,41.7,30.00,NNW,346,0.0,5.0,76,0.00,BKN,OVC,0.48,0.0,WeatherDisplay:10.37,2013-05-03 18:20:00,
2013-05-03 20:30:00,48.9,41.7,30.00,NNW,346,0.0,0.0,76,0.00,BKN,OVC,0.48,0.0,WeatherDisplay:10.37,2013-05-03 18:30:00,
2013-05-03 20:40:00,48.9,41.7,30.00,North,9,3.0,3.0,76,0.00,BKN,OVC,0.48,0.0,WeatherDisplay:10.37,2013-05-03 18:40:00,
2013-05-03 20:50:00,48.9,41.7,30.00,North,9,5.0,6.0,76,0.00,BKN,OVC,0.48,0.0,WeatherDisplay:10.37,2013-05-03 18:50:00,
2013-05-03 21:00:00,49.1,41.9,30.00,North,351,2.0,5.0,76,0.00,BKN,OVC,0.48,0.0,WeatherDisplay:10.37,2013-05-03 19:00:00,
2013-05-03 21:10:00,48.7,41.5,30.00,North,349,0.0,5.0,76,0.00,SCT,OVC,0.48,0.0,WeatherDisplay:10.37,2013-05-03 19:10:00,
2013-05-03 21:20:00,48.2,41.0,30.00,NNE,21,0.0,3.0,76,0.00,SCT,OVC,0.48,0.0,WeatherDisplay:10.37,2013-05-03 19:20:00,
2013-05-03 21:30:00,47.8,40.6,30.00,ENE,64,0.0,0.0,76,0.00,SCT,OVC,0.48,0.0,WeatherDisplay:10.37,2013-05-03 19:30:00,
2013-05-03 21:40:00,47.3,40.1,30.00,NNW,337,0.0,0.0,76,0.00,SCT,OVC,0.48,0.0,WeatherDisplay:10.37,2013-05-03 19:40:00,
2013-05-03 21:50:00,46.6,39.4,30.00,ESE,113,0.0,0.0,76,0.00,SCT,OVC,0.48,0.0,WeatherDisplay:10.37,2013-05-03 19:50:00,
2013-05-03 22:00:00,46.2,39.4,30.00,SW,235,0.0,0.0,77,0.00,SCT,OVC,0.48,0.0,WeatherDisplay:10.37,2013-05-03 20:00:00,
2013-05-03 22:10:00,45.9,39.1,30.00,West,273,0.0,0.0,77,0.00,SCT,OVC,0.48,0.0,WeatherDisplay:10.37,2013-05-03 20:10:00,
2013-05-03 22:20:00,45.5,38.7,30.00,WSW,243,0.0,0.0,77,0.00,SCT,OVC,0.48,0.0,WeatherDisplay:10.37,2013-05-03 20:20:00,
2013-05-03 22:30:00,45.5,38.7,30.00,SW,233,0.0,0.0,77,0.00,SCT,OVC,0.48,0.0,WeatherDisplay:10.37,2013-05-03 20:30:00,
2013-05-03 22:40:00,45.1,38.7,30.00,WNW,288,0.0,0.0,78,0.00,SCT,OVC,0.48,0.0,WeatherDisplay:10.37,2013-05-03 20:40:00,
2013-05-03 22:50:00,44.4,38.0,30.00,WSW,256,0.0,0.0,78,0.00,SCT,OVC,0.48,0.0,WeatherDisplay:10.37,2013-05-03 20:50:00,
2013-05-03 23:00:00,44.2,37.8,30.00,WSW,247,0.0,0.0,78,0.00,SCT,OVC,0.48,0.0,WeatherDisplay:10.37,2013-05-03 21:00:00,
2013-05-03 23:10:00,43.9,37.5,30.00,WSW,251,0.0,0.0,78,0.00,SCT,OVC,0.48,0.0,WeatherDisplay:10.37,2013-05-03 21:10:00,
2013-05-03 23:20:00,44.1,37.6,30.00,West,264,0.0,0.0,78,0.00,SCT,OVC,0.48,0.0,WeatherDisplay:10.37,2013-05-03 21:20:00,
2013-05-03 23:30:00,44.2,37.8,30.00,NW,313,0.0,0.0,78,0.00,SCT,OVC,0.48,0.0,WeatherDisplay:10.37,2013-05-03 21:30:00,
2013-05-03 23:40:00,44.2,37.8,30.00,WSW,255,0.0,0.0,78,0.00,SCT,OVC,0.48,0.0,WeatherDisplay:10.37,2013-05-03 21:40:00,
2013-05-03 23:50:00,44.4,38.3,30.00,North,351,0.0,0.0,79,0.00,SCT,OVC,0.48,0.0,WeatherDisplay:10.37,2013-05-03 21:50:00,